Regional Weather Roundup
Issued by NWS Upton, NY

Current Version | Previous Version | Text Only | Print | Product List | Glossary On
Versions: 1 2 3 4 5 6 7 8 9 10 11 12 13 14 15 16 17 18 19 20 21 22 23 24 25 26 27 28 29 30 31 32 33 34 35 36 37 38 39 40 41 42 43 44 45 46 47 48 49 50
000 ASUS41 KOKX 230008 RWROKX REGIONAL WEATHER ROUNDUP NATIONAL WEATHER SERVICE NEW YORK NY 700 PM EST WED FEB 22 2017 NOTE: "FAIR" INDICATES FEW OR NO CLOUDS BELOW 12,000 FEET WITH NO SIGNIFICANT WEATHER AND/OR OBSTRUCTIONS TO VISIBILITY. NYZ071-072-176-178-NJZ106-104-230100- NEW YORK CITY METRO AREA CITY SKY/WX TMP DP RH WIND PRES REMARKS Central Park CLOUDY 53 42 66 S5 29.93S Wall St Helipt NOT AVBL LaGuardia APRT CLOUDY 52 43 71 S10 29.91R Kennedy INTL CLOUDY 47 45 93 S5 29.93S Breezy Point N/A 43 N/A N/A S8 N/A Newark/Liberty CLOUDY 54 41 61 S3 29.90S Teterboro CLOUDY 54 41 61 S3 29.90R $$ NYZ177-179-078>081-230100- LONG ISLAND NEW YORK CITY SKY/WX TMP DP RH WIND PRES REMARKS Jones Beach N/A 43 N/A N/A S5 N/A Matinecock PT N/A 52 N/A N/A CALM N/A Farmingdale CLOUDY 48 42 80 SW7 29.92F MacArthur/ISP CLOUDY 47 43 86 S6 29.92S Shirley CLOUDY 46 43 89 S5 29.93S Westhampton CLOUDY 45 41 86 SW5 29.94R Southampton NOT AVBL Bridgehampton NOT AVBL East Hampton CLOUDY 43 41 93 SW5 29.93S Montauk N/A 44 42 93 S3 29.94R $$ NYZ052-065-067-230100- HUDSON VALLEY CITY SKY/WX TMP DP RH WIND PRES REMARKS White Plains CLOUDY 46 37 71 CALM 29.90R Newburgh PTCLDY 48 41 76 CALM 29.90S Montgomery MOCLDY 42 37 82 CALM 29.88S Poughkeepsie PTCLDY 47 38 71 CALM 29.89R Albany PTCLDY 47 34 60 CALM 29.87R $$ NJZ001-105-106-008-010-013-015-019>022-104-230100- NEW JERSEY CITY SKY/WX TMP DP RH WIND PRES REMARKS Newark/Liberty CLOUDY 54 41 61 S3 29.90S Teterboro CLOUDY 54 41 61 S3 29.90R Caldwell CLOUDY 55 39 54 CALM 29.90S Somerville PTCLDY 54 40 59 S3 29.89R Linden NOT AVBL Sussex CLOUDY 45 39 79 CALM 29.89S Andover N/A 45 39 79 SW3 29.89S Trenton PTCLDY 53 41 63 S3 29.90S Millville CLEAR 46 45 96 CALM 29.93R Atlantic City CLEAR 50 45 83 CALM 29.93R Wrightstown PTCLDY 50 43 77 CALM 29.90R Toms River PTCLDY 51 48 89 S6 29.93R Belmar PTCLDY 47 44 90 S3 29.93R $$ PAZ047>061-062-071-230100- EASTERN PENNSYLVANIA CITY SKY/WX TMP DP RH WIND PRES REMARKS Philadelphia MOCLDY 53 43 68 S6 29.92F Allentown PTCLDY 56 39 53 S3 29.90R Scranton PTCLDY 50 40 68 S3 29.88R $$ CTZ002-004>006-009-010-012-RIZ004-006-007-MAZ004-011-015-230100- SOUTHERN NEW ENGLAND IN CT CITY SKY/WX TMP DP RH WIND PRES REMARKS Bradley INTL MOCLDY 48 37 65 S7 29.89R Hartford CLOUDY 48 37 65 S6 29.90R Danbury CLOUDY 42 36 79 SE3 29.92S Wtrbury/Oxford MOCLDY 46 36 66 CALM 29.91S Bridgeport CLOUDY 46 37 71 CALM 29.91S Meriden CLOUDY 46 36 68 S5 29.91S New Haven CLOUDY 42 36 79 S5 29.92R Chester CLOUDY 46 37 71 CALM 29.91S Groton CLOUDY 40 37 89 S3 29.92S Wilimantic PTCLDY 50 37 61 S6 29.91R IN RI CITY SKY/WX TMP DP RH WIND PRES REMARKS Providence PTCLDY 43 36 76 S3 29.91R Block Island PTCLDY 43 42 97 SW14 29.93S Westerly CLOUDY 44 36 73 SW5 29.93R IN MA CITY SKY/WX TMP DP RH WIND PRES REMARKS Boston PTCLDY 42 37 82 E7 29.91R Worcester CLEAR 47 37 68 SW6 29.88S Westfield PTCLDY 42 34 73 CALM 29.88R Provincetown CLEAR 41 37 86 SE6 29.92F Nantucket CLOUDY 40 38 93 S3 29.94S $$ ANZ330-335-338-340-345-350-353-355-230100- COASTAL MARINE OBSERVATIONS STATION/POSITION TIME SKY/WX TEMP WIND PRES VSBY WAVE AIR SEA DIR/SP/G HT/PER (UTC) (F) (DEG/KT/KT) (MB) (MI) (FT/S) NY HARB ENTRANCE 2250 43 42 180/ 10/ 12 1012.8 2/ 8 20 S FIRE ISLAND 2350 44 43 260/ 4/ 6 1013.6 2/10 GREAT SOUTH BAY NOT AVBL 23 SSW MONTAUK P 2250 45 45 1014.2 3/11 15 E BARNEGAT LI 2330 42 N/A 3/ 9 HUDSON CANYON 2250 50 1013.8 3/10 KINGS POINT 2348 48 39 1012.8 EXECUTION ROCKS NOT AVBL CENTRAL LI SOUND 2300 41 200/ 4/ 6 N/A 0 EASTERN LI SOUND NOT AVBL ROBBINS REEF 2348 46 180/ 12/ 13 1013.0 $$ >>>>>>>>>>>>>>>>>>>>>>>>>>>> KEY <<<<<<<<<<<<<<<<<<<<<<<<<<< > < > SKY/WX - Sky Condition/Present Weather < > TMP - Temperature in Fahrenheit < > DP - Dew Point in Fahrenheit < > RH - Relative Humidity in Percent < > WIND - Direction (from) and Speed in MPH < > PRES - Mean Sea Level Pressure (inches of Hg) < > WCI - Wind Chill Index < > VSB - VISIBILITY IN MILES < > HX - HEAT INDEX < > TC - TEMPERATURE IN CELSIUS < > VRB - VARIABLE WIND DIRECTION < > < >>>>>>>>>>>>>>>>>>>>>>>>>>>> KEY <<<<<<<<<<<<<<<<<<<<<<<<<<<

USA.gov is the U.S. government's official web portal to all federal, state and local government web resources and services.